Change the Weather History Date:

Tuesday, March 26, 2013

  Actual Average Record
Temperature  
Mean Temperature 39 °F 46 °F  
Max Temperature 44 °F 56 °F 81 °F (1967)
Min Temperature 33 °F 35 °F 14 °F (1955)
Degree Days  
Heating Degree Days 26 20  
Month to date heating degree days 674 619  
Since 1 July heating degree days 4365 4508  
Cooling Degree Days 0 0  
Month to date cooling degree days 0 0  
Year to date cooling degree days 0 0  
Moisture  
Dew Point 30 °F    
Average Humidity 75    
Maximum Humidity 96    
Minimum Humidity 53    
Precipitation  
Precipitation 0.02 in 0.12 in 1.34 in (2002)
Month to date precipitation 2.23 3.02  
Year to date precipitation 6.80 8.43  
Sea Level Pressure  
Sea Level Pressure 29.97 in    
Wind  
Wind Speed 4 mph (WNW)    
Max Wind Speed 15 mph    
Max Gust Speed 21 mph    
Visibility 9 miles    
Events Rain , Snow    
T = Trace of Precipitation, MM = Missing Value Source: NWS Daily Summary

Daily Weather History Graph

Daily Weather History Graph

Search for Another Location

Airport or City:

Trip Planner

Search our weather history database for the weather conditions in past years. The results will help you decide how hot, cold, wet, or windy it might be!

Date:

Astronomy

Mar. 26, 2013 Rise Set
Actual Time 7:13 AM EDT 7:37 PM EDT
Civil Twilight 6:46 AM EDT 8:04 PM EDT
Nautical Twilight 6:14 AM EDT 8:36 PM EDT
Astronomical Twilight 5:42 AM EDT 9:09 PM EDT
Moon 7:12 PM EDT (3/26) 6:28 AM EDT (3/26)
Length of Visible Light 13h 18m
Length of Day
12h 24m
Waxing Gibbous, 99% of the Moon is Illuminated
Mar 26
Waxing Gibbous
Mar 27
Full
Apr 3
Last Quarter
Apr 10
New
Apr 18
First Quarter

Hourly Weather History & Observations

Time (EDT) Temp. Windchill Dew Point Humidity Pressure Visibility Wind Dir Wind Speed Gust Speed Precip Events Conditions
12:53 AM 33.1 °F 28.7 °F 30.9 °F 92% 29.78 in 7.0 mi SSW 4.6 mph - 0.00 in   Overcast
1:53 AM 34.0 °F - 30.9 °F 89% 29.79 in 7.0 mi Calm Calm - 0.01 in   Overcast
2:53 AM 34.0 °F 31.0 °F 32.0 °F 92% 29.81 in 4.0 mi WNW 3.5 mph - 0.00 in   Overcast
3:53 AM 34.0 °F 29.8 °F 32.0 °F 92% 29.81 in 4.0 mi NW 4.6 mph - 0.00 in   Overcast
4:53 AM 35.1 °F 31.0 °F 32.0 °F 89% 29.83 in 10.0 mi NW 4.6 mph - N/A   Overcast
5:27 AM 33.8 °F 29.6 °F 30.2 °F 87% 29.82 in 10.0 mi NW 4.6 mph - N/A   Overcast
5:53 AM 34.0 °F 31.0 °F 30.9 °F 89% 29.86 in 10.0 mi Variable 3.5 mph - N/A   Overcast
6:53 AM 34.0 °F 28.0 °F 30.0 °F 85% 29.89 in 10.0 mi NW 6.9 mph - N/A   Overcast
7:53 AM 34.0 °F 31.0 °F 28.9 °F 82% 29.92 in 10.0 mi WNW 3.5 mph - N/A   Overcast
8:53 AM 35.1 °F 32.2 °F 28.9 °F 78% 29.94 in 10.0 mi West 3.5 mph - N/A   Overcast
9:25 AM 35.6 °F - 30.2 °F 81% 29.92 in 1.8 mi Calm Calm - 0.00 in Snow Light Snow
9:37 AM 35.6 °F - 28.4 °F 75% 29.92 in 3.0 mi Calm Calm - 0.00 in Snow Light Snow
9:53 AM 35.1 °F - 30.0 °F 82% 29.96 in 9.0 mi Calm Calm - 0.00 in   Overcast
10:53 AM 37.9 °F 35.5 °F 30.0 °F 73% 29.97 in 10.0 mi NW 3.5 mph - N/A   Overcast
11:37 AM 39.2 °F 34.2 °F 28.4 °F 65% 29.95 in 10.0 mi NW 6.9 mph - N/A   Overcast
11:53 AM 39.9 °F 35.8 °F 28.9 °F 65% 29.98 in 10.0 mi NNW 5.8 mph - N/A   Overcast
12:02 PM 39.2 °F 35.0 °F 28.4 °F 65% 29.95 in 10.0 mi NNW 5.8 mph - N/A   Overcast
12:21 PM 39.2 °F 32.5 °F 28.4 °F 65% 29.95 in 10.0 mi North 10.4 mph - N/A   Overcast
12:35 PM 39.2 °F 35.9 °F 28.4 °F 65% 29.96 in 10.0 mi Variable 4.6 mph - N/A   Overcast
12:53 PM 39.9 °F 37.8 °F 28.9 °F 65% 29.99 in 10.0 mi NNW 3.5 mph - N/A   Overcast
2:53 PM 43.0 °F 39.5 °F 27.0 °F 53% 29.97 in 10.0 mi NW 5.8 mph - N/A   Overcast
3:53 PM 41.0 °F 36.4 °F 28.9 °F 62% 29.97 in 9.0 mi West 6.9 mph - 0.00 in   Unknown
4:53 PM 43.0 °F 40.3 °F 28.9 °F 58% 29.98 in 10.0 mi NW 4.6 mph - N/A   Overcast
5:53 PM 39.0 °F 32.3 °F 30.9 °F 73% 30.01 in 10.0 mi West 10.4 mph - 0.01 in Rain Light Rain Showers
6:53 PM 39.9 °F 35.1 °F 28.9 °F 65% 30.03 in 10.0 mi NW 6.9 mph 18.4 mph 0.00 in   Overcast
7:53 PM 39.0 °F 35.7 °F 28.9 °F 67% 30.05 in 10.0 mi NW 4.6 mph - N/A   Overcast
8:53 PM 39.0 °F 36.8 °F 28.0 °F 65% 30.07 in 10.0 mi West 3.5 mph - N/A   Overcast
9:19 PM 37.4 °F 30.8 °F 30.2 °F 75% 30.05 in 10.0 mi West 9.2 mph - N/A   Overcast
9:29 PM 37.4 °F 32.1 °F 30.2 °F 75% 30.06 in 10.0 mi West 6.9 mph - N/A   Overcast
9:53 PM 36.0 °F 32.1 °F 30.0 °F 79% 30.10 in 10.0 mi West 4.6 mph - N/A   Overcast
10:28 PM 35.6 °F 32.8 °F 30.2 °F 81% 30.08 in 10.0 mi West 3.5 mph - N/A   Overcast
10:35 PM 35.6 °F - 30.2 °F 81% 30.08 in 10.0 mi Calm Calm - N/A   Overcast
10:42 PM 35.6 °F - 30.2 °F 81% 30.08 in 10.0 mi Calm Calm - N/A   Overcast
10:53 PM 36.0 °F - 30.9 °F 82% 30.11 in 10.0 mi Calm Calm - N/A   Overcast
11:01 PM 35.6 °F 31.7 °F 30.2 °F 81% 30.08 in 10.0 mi WSW 4.6 mph - N/A   Overcast
11:53 PM 35.1 °F 31.0 °F 30.9 °F 85% 30.11 in 10.0 mi SW 4.6 mph - N/A   Overcast